Date String (YYYY-MM-DD hh:mm:ss) UTC,Instrument flags,Ambient pressure (hPa),Sample flow (lpm),Bypass flow (lpm),Sample temperature (°C),Ambient temperature (°C),ASC tube jacket temperature (°C),LED temperature (°C),Box temperature (°C),Sample RH (%),Span deviation,Mass concentration (μg/m³),Mass concentration (μg/m³),Mass concentration (μg/m³)
DateTimeUTC,F1_M11,P_M11,Q1_M11,Q2_M11,T1_M11,T2_M11,T3_M11,T4_M11,T5_M11,U1_M11,ZSPAN_M11,X0_M11,X2_M11,X1_M11
2021-08-22 12:00:00,,0824.5,5.00,0.00,29.4,28.7,00.0,38.6,31.2,27.2,0001.7,0017.92,0010.62,0009.47
2021-08-22 12:01:00,,0824.8,5.01,0.00,29.4,28.7,00.0,38.6,31.2,27.2,0001.6,0017.33,0010.56,0009.42
2021-08-22 12:02:00,,0824.6,4.99,0.00,29.4,28.7,00.0,38.6,31.2,27.8,0001.8,0016.62,0010.58,0009.42
2021-08-22 12:03:00,,0824.4,5.01,0.00,29.4,28.7,00.0,38.6,31.2,28.3,0001.8,0016.44,0010.56,0009.43
2021-08-22 12:04:00,,0824.7,5.01,0.00,29.4,28.7,00.0,38.6,31.2,28.6,0001.6,0017.22,0010.59,0009.47
2021-08-22 12:05:00,,0824.6,5.01,0.00,29.4,28.7,00.0,38.6,31.2,28.8,0001.8,0016.85,0010.51,0009.48
2021-08-22 12:06:00,,0824.7,4.99,0.00,29.4,28.7,00.0,38.6,31.2,29.1,0001.8,0016.77,0010.52,0009.49
2021-08-22 12:07:00,,0824.9,5.01,0.00,29.5,28.8,00.0,38.6,31.2,29.3,0001.7,0016.83,0010.53,0009.49
2021-08-22 12:08:00,,0824.9,5.00,0.00,29.5,28.8,00.0,38.6,31.3,29.3,0001.4,0016.92,0010.55,0009.50
2021-08-22 12:09:00,,0825.0,5.00,0.00,29.5,28.8,00.0,38.6,31.2,29.3,0001.1,0016.76,0010.56,0009.53
2021-08-22 12:10:00,,0824.9,5.00,0.00,29.4,28.7,00.0,38.6,31.2,29.4,0001.3,0016.58,0010.61,0009.59
2021-08-22 12:11:00,,0824.8,5.01,0.00,29.4,28.7,00.0,38.6,31.2,29.2,0001.5,0016.99,0010.72,0009.68
2021-08-22 12:12:00,,0824.8,5.00,0.00,29.5,28.7,00.0,38.6,31.2,29.1,0001.5,0017.60,0010.79,0009.76
2021-08-22 12:13:00,,0824.9,5.00,0.00,29.5,28.7,00.0,38.6,31.2,29.2,0001.4,0018.18,0010.81,0009.78
2021-08-22 12:14:00,,0825.0,5.01,0.00,29.5,28.7,00.0,38.6,31.2,29.3,0001.3,0018.74,0010.88,0009.79
2021-08-22 12:15:00,,0825.1,5.01,0.00,29.5,28.8,00.0,38.6,31.2,29.3,0001.4,0018.71,0010.92,0009.79
2021-08-22 12:16:00,,0825.0,5.00,0.00,29.5,28.8,00.0,38.6,31.2,29.4,0001.2,0019.28,0011.01,0009.81
2021-08-22 12:17:00,,0824.9,4.99,0.00,29.5,28.8,00.0,38.6,31.3,29.5,0000.9,0019.47,0011.03,0009.81
2021-08-22 12:18:00,,0824.8,5.00,0.00,29.5,28.8,00.0,38.6,31.3,29.6,0000.9,0021.14,0011.04,0009.81
2021-08-22 12:19:00,,0824.9,5.01,0.00,29.5,28.8,00.0,38.6,31.2,29.6,0001.1,0021.79,0011.07,0009.82
2021-08-22 12:20:00,,0825.2,4.98,0.00,29.5,28.8,00.0,38.6,31.3,29.7,0001.3,0022.50,0011.18,0009.83
2021-08-22 12:21:00,,0825.3,5.01,0.00,29.5,28.8,00.0,38.6,31.2,29.7,0001.2,0023.19,0011.27,0009.84
2021-08-22 12:22:00,,0825.3,4.99,0.00,29.5,28.7,00.0,38.6,31.2,29.9,0001.1,0023.25,0011.27,0009.83
2021-08-22 12:23:00,,0825.2,5.00,0.00,29.4,28.7,00.0,38.6,31.2,29.9,0001.2,0022.43,0011.26,0009.82
2021-08-22 12:24:00,,0825.0,4.99,0.00,29.4,28.7,00.0,38.6,31.2,29.9,0001.4,0022.22,0011.23,0009.83
2021-08-22 12:25:00,,0824.9,5.00,0.00,29.4,28.7,00.0,38.6,31.2,29.9,0001.5,0021.82,0011.27,0009.83
2021-08-22 12:26:00,,0824.8,5.00,0.00,29.4,28.7,00.0,38.6,31.2,29.9,0001.6,0021.92,0011.25,0009.84
2021-08-22 12:27:00,,0824.8,5.02,0.00,29.4,28.7,00.0,38.6,31.2,30.0,0001.5,0021.16,0011.23,0009.86
2021-08-22 12:28:00,,0824.9,4.98,0.00,29.4,28.7,00.0,38.6,31.2,30.0,0001.6,0021.86,0011.18,0009.87
2021-08-22 12:29:00,,0825.0,5.02,0.00,29.4,28.7,00.0,38.6,31.2,30.0,0001.8,0020.27,0011.10,0009.84
2021-08-22 12:30:00,,0825.3,4.99,0.00,29.4,28.7,00.0,38.6,31.2,29.9,0001.7,0019.59,0011.10,0009.82
2021-08-22 12:31:00,,0825.2,4.99,0.00,29.4,28.7,00.0,38.6,31.2,29.9,0001.6,0019.11,0011.01,0009.80
2021-08-22 12:32:00,,0825.2,5.00,0.00,29.4,28.7,00.0,38.6,31.2,29.8,0001.6,0018.13,0010.86,0009.76
2021-08-22 12:33:00,,0825.1,5.01,0.00,29.4,28.8,00.0,38.6,31.2,29.8,0001.7,0017.78,0010.76,0009.73
2021-08-22 12:34:00,,0825.1,4.99,0.00,29.4,28.7,00.0,38.6,31.2,29.7,0001.7,0017.88,0010.67,0009.70
2021-08-22 12:35:00,,0825.2,5.00,0.00,29.5,28.8,00.0,38.6,31.2,29.7,0001.4,0017.47,0010.61,0009.66
2021-08-22 12:36:00,,0825.2,5.00,0.00,29.5,28.8,00.0,38.6,31.2,29.6,0001.3,0017.16,0010.46,0009.59
2021-08-22 12:37:00,,0825.2,5.00,0.00,29.5,28.8,00.0,38.6,31.3,29.5,0001.3,0016.50,0010.34,0009.53
2021-08-22 12:38:00,,0825.3,4.99,0.00,29.5,28.8,00.0,38.6,31.3,29.4,0001.3,0016.87,0010.26,0009.47
2021-08-22 12:39:00,,0825.3,5.01,0.00,29.5,28.8,00.0,38.6,31.3,29.4,0001.4,0016.14,0010.24,0009.42
2021-08-22 12:40:00,,0825.4,4.99,0.00,29.5,28.8,00.0,38.6,31.3,29.4,0001.2,0015.99,0010.23,0009.38
2021-08-22 12:41:00,,0825.3,5.01,0.00,29.5,28.8,00.0,38.6,31.3,29.4,0001.1,0015.85,0010.16,0009.34
2021-08-22 12:42:00,,0825.3,5.00,0.00,29.5,28.8,00.0,38.6,31.3,29.3,0001.4,0016.11,0010.16,0009.31
2021-08-22 12:43:00,,0825.3,4.99,0.00,29.5,28.8,00.0,38.6,31.3,29.1,0001.6,0016.57,0010.18,0009.27
2021-08-22 12:44:00,,0825.4,5.01,0.00,29.5,28.8,00.0,38.6,31.3,29.0,0001.5,0016.81,0010.16,0009.19
2021-08-22 12:45:00,,0825.4,4.99,0.00,29.5,28.8,00.0,38.6,31.3,28.9,0001.4,0016.87,0010.12,0009.10
2021-08-22 12:46:00,,0825.5,5.01,0.00,29.5,28.8,00.0,38.6,31.3,28.7,0001.3,0017.27,0010.02,0009.02
2021-08-22 12:47:00,,0825.5,5.01,0.00,29.5,28.8,00.0,38.6,31.3,28.3,0001.1,0016.92,0009.96,0008.94
2021-08-22 12:48:00,,0825.6,5.00,0.00,29.5,28.8,00.0,38.6,31.3,28.3,0001.0,0017.14,0009.90,0008.84
2021-08-22 12:49:00,,0825.6,5.00,0.00,29.5,28.8,00.0,38.6,31.3,28.0,0001.1,0016.71,0009.76,0008.70
2021-08-22 12:50:00,,0825.6,4.99,0.00,29.5,28.8,00.0,38.6,31.3,28.0,0001.4,0016.52,0009.64,0008.58
2021-08-22 12:51:00,,0825.7,5.00,0.00,29.5,28.8,00.0,38.7,31.3,28.2,0001.7,0016.47,0009.53,0008.45
2021-08-22 12:52:00,,0825.7,5.00,0.00,29.5,28.8,00.0,38.7,31.3,28.3,0001.8,0016.18,0009.37,0008.32
2021-08-22 12:53:00,,0825.7,5.00,0.00,29.5,28.8,00.0,38.7,31.3,28.4,0001.5,0015.75,0009.22,0008.19
2021-08-22 12:54:00,,0825.7,4.99,0.00,29.5,28.8,00.0,38.7,31.3,28.5,0001.5,0015.25,0009.04,0008.08
2021-08-22 12:55:00,,0825.7,5.00,0.00,29.6,28.8,00.0,38.7,31.3,28.5,0001.4,0014.95,0008.89,0007.98
2021-08-22 12:56:00,,0825.7,5.01,0.00,29.6,28.8,00.0,38.7,31.3,28.5,0001.3,0014.47,0008.82,0007.90
2021-08-22 12:57:00,,0825.6,4.99,0.00,29.6,28.8,00.0,38.7,31.3,28.6,0001.6,0013.94,0008.78,0007.82
2021-08-22 12:58:00,,0825.6,5.00,0.00,29.6,28.8,00.0,38.7,31.4,28.5,0002.0,0014.10,0008.69,0007.76
2021-08-22 12:59:00,,0825.6,5.00,0.00,29.6,28.8,00.0,38.7,31.4,28.5,0002.2,0014.30,0008.63,0007.70
